Find STARLINK-38094

NORAD ID: 100027 Int'l Des: 2026-160AC Owner: SPXS Country: US Constellation: starlink operational

Aktuelle Ansicht

3D-Globus wird geladen...

About STARLINK-38094

STARLINK-38094 (NORAD 100027) is a starlink constellation satellite (v2 mini) launched Jul 14, 2026 by SPXS of US. with a mass of 575.00 kg.

Nächste Überflüge

Passes for default location (London). Set your location on the main map for personalized predictions.

Höhenverlauf

Loading altitude history...

Zweizeiliger Elementsatz

1 A0027U 26160AC 26221.29163034 .00328328 00000-0 17990-2 0 9999
2 A0027 69.9978 314.1568 0003585 280.4339 79.6457 15.78740267 5355
Epoch: 9. Aug. 2026 • Age: 25 hours

Aktueller Status

Höhe 355.1 km
Apogäum / Perigäum N/A
Geschwindigkeit 7.70 km/s
Subsatellitenpunkt -70.04°S, 130.77°E
Startdatum 14. Juli 2026
Alter 27 days
Typ internet

Technische Details

Klassifizierung Payload
Masse 575.00 kg
Trockenmasse 530.00 kg
Gesamtmasse 575.00 kg
Länge 0.30 m
Durchmesser 4.10 m
Spannweite 29.00 m
Form Box + pan
Hersteller SPXS
Bus-Typ Starlink V2MO
Phasenstatus In Orbit
Besitzer/Staat SPXS/US

Most Searched